Weather in Roznov pod Radhostem

Czech Republic     49°27′35″N   18°08′11″E
temp.,
°C
wind,
m/s
gust,
m/s
humid.,
%
clouds,
%
prec.,
mm/h
press.,
hPa
HPBL,
m
19 september, sun
sun1923:00+10nw1296100 0.4 1014143
02:00+9n3798100 0.9 1015744
05:00+7n2698100 0.2 1015590
08:00+7n279442 0.3 1016613
11:00+7n2592100 0.1 1016660
14:00+9n2484100 0.2 1016727
17:00+9nne357984 0.1 1016765
20:00+7nne229130 0.1 101639
20 september, mon
mon2023:00+6nne239420 0.0 101781
02:00+5nne229718 0.0 101754
05:00+6nne129686 0.1 101846
08:00+7n259195 0.1 1018373
11:00+8n358998 0.3 1019645
14:00+10nne357077 0.4 10191085
17:00+10nne366588 0.0 10191272
20:00+8nne386879 0.0 1021582
21 september, tue
tue2123:00+7nne127473 0.0 102359
02:00+7n117590 0.0 102318
05:00+7nnw117796 0.0 102419
08:00+8nnw277285 0.0 1025574
11:00+10n356313 0.1 10261275
14:00+11n455354 0.1 10261509
17:00+11n4556100 0.0 10261392
20:00+6nne1276100 0.0 102814
22 september, wed
wed2223:00+6ene1173100 0.0 102810
02:00+5nne0176100 0.0 102810
05:00+5n0180100 0.0 102712
08:00+6n1576100 0.0 1027371
11:00+6n2677100 0.0 1027726
14:00+9n4667100 0.1 10251299
17:00+8n256973 0.1 1025756
20:00+7nne1180100 0.1 102413
23 september, thu
thu2323:00+6ne007889 0.0 102411
02:00+4s1188100 0.0 102311
05:00+4sse21895 0.0 102215
08:00+6s227846 0.0 102189
11:00+12sw33565 0.0 1019815
14:00+13sw3555100 0.0 10161002
17:00+13sw4862100 0.0 1014850
20:00+9s3674100 0.0 1014127